Stations météo

Publicité
Salon, France (7648): Température de l'air & dewpoint: 18.01.2021 07:00:00 - 24.01.2021 07:00:00 (CET)Salon, France (7648): Température de l'air 5cm: 18.01.2021 07:00:00 - 24.01.2021 07:00:00 (CET)Salon, France (7648): Vitesse du vent & gusts: 18.01.2021 07:00:00 - 24.01.2021 07:00:00 (CET)Salon, France (7648): Direction du vent: 18.01.2021 07:00:00 - 24.01.2021 07:00:00 (CET)Salon, France (7648): reduced air pressure: 18.01.2021 07:00:00 - 24.01.2021 07:00:00 (CET)Salon, France (7648): visibility: 18.01.2021 07:00:00 - 24.01.2021 07:00:00 (CET)Salon, France (7648): Quantités de précipitations: 18.01.2021 07:00:00 - 24.01.2021 07:00:00 (CET)
Date & Time tt [°C] td [°C] tt 5cm [°C] ff [km/h] ff [knt] fx [km/h] fx [knt] dd ppp [hPa] vv [km] rr [mm]
24.01.2021 07:00:00 5,0 3,7 4,2 15 8 34 18 NW 998,5 60 0,0
24.01.2021 06:00:00 5,5 4,8 5,0 6 4 16 9 NW 998,7 44 0,2
24.01.2021 05:00:00 5,6 4,9 5,2 11 6 15 8 NNW 998,9 14 0,8
24.01.2021 04:00:00 5,9 5,2 5,3 11 6 14 8 N 999,1 10 1,0
24.01.2021 03:00:00 6,0 5,3 5,5 8 4 13 7 NE 999,3 60 0,2
24.01.2021 02:00:00 6,3 5,4 5,7 0 0 9 5 N 999,9 10 1,2
24.01.2021 01:00:00 6,5 5,1 5,7 4 2 10 5 NNW 1000,0 38 0,2
24.01.2021 00:00:00 6,6 4,4 5,8 4 2 11 6 ENE 1000,6 55 0,0
23.01.2021 23:00:00 7,0 4,1 5,9 8 4 12 7 E 1000,8 60 0,0
23.01.2021 22:00:00 7,0 4,5 5,9 2 1 9 5 N 1000,6 60 0,0
23.01.2021 21:00:00 8,6 3,4 6,9 5 3 10 6 WNW 1001,4 60 0,0
23.01.2021 20:00:00 9,2 3,2 7,3 5 3 15 8 SW 1001,9 60 0,0
23.01.2021 19:00:00 10,0 3,7 9,0 7 4 27 15 WSW 1001,7 60 0,0
23.01.2021 18:00:00 10,2 6,2 9,4 11 6 17 9 SW 1002,0 60 0,0
23.01.2021 17:00:00 10,0 6,7 9,5 7 4 15 8 W 1002,0 35 0,0
23.01.2021 16:00:00 10,6 7,5 9,5 6 3 11 6 SW 1002,2 30 0,2
23.01.2021 15:00:00 10,2 6,0 9,1 4 2 11 6 SSE 1002,5 40 0,0
23.01.2021 14:00:00 10,5 4,2 11,5 4 2 25 14 S 1003,3 60 0,0
23.01.2021 13:00:00 11,1 3,9 12,8 8 4 17 9 W 1004,3 60 0,0
23.01.2021 12:00:00 8,9 3,1 9,8 2 1 7 4 N 1005,2 60 0,0
23.01.2021 11:00:00 7,6 2,5 8,6 3 2 19 11 W 1006,0 60 0,0
23.01.2021 10:00:00 5,8 1,9 0,8 2 1 7 4 SSE 1005,7 60 0,0
23.01.2021 09:00:00 1,6 0,0 -1,2 2 1 9 5 S 1005,8 60 0,0
23.01.2021 08:00:00 0,9 -1,8 -0,7 8 5 15 8 E 1005,6 60 0,0
23.01.2021 07:00:00 2,2 0,1 -2,1 8 4 11 6 NW 1005,2 60 0,0
23.01.2021 06:00:00 2,3 -0,1 -0,9 4 2 18 10 NW 1005,6 60 0,0
23.01.2021 05:00:00 4,4 0,2 2,8 10 5 19 10 W 1005,4 60 0,0
23.01.2021 04:00:00 5,1 0,5 4,3 9 5 21 12 W 1005,0 60 0,0
23.01.2021 03:00:00 5,9 0,2 4,8 15 8 29 16 WNW 1004,9 60 0,0
23.01.2021 02:00:00 6,2 0,5 5,1 18 10 32 17 NW 1004,3 60 0,0
23.01.2021 01:00:00 6,6 0,5 5,3 17 9 41 22 WNW 1003,8 60 0,0
23.01.2021 00:00:00 7,0 0,6 6,0 24 13 51 28 NW 1003,6 60 0,0
22.01.2021 23:00:00 7,3 0,9 6,4 28 15 54 29 NW 1002,3 60 0,0
22.01.2021 22:00:00 7,9 1,1 6,5 31 17 56 30 NW 1000,9 60 0,0
22.01.2021 21:00:00 9,0 1,4 7,4 32 18 63 34 NW 998,9 60 0,2
22.01.2021 20:00:00 9,9 4,9 8,1 27 15 48 26 WNW 996,3 60 0,0
22.01.2021 19:00:00 8,9 7,7 8,2 7 4 26 14 W 994,8 37 0,2
22.01.2021 18:00:00 9,1 7,7 8,2 12 7 29 15 W 994,0 16 0,8
22.01.2021 17:00:00 9,1 7,7 8,4 7 4 31 17 W 993,7 14 1,2
22.01.2021 16:00:00 10,4 9,0 9,8 19 11 31 17 SW 993,1 20 0,8
22.01.2021 15:00:00 11,8 9,7 11,6 16 9 32 17 W 991,7 31 0,2
22.01.2021 14:00:00 12,6 11,8 12,0 11 6 35 19 S 992,3 11 0,2
22.01.2021 13:00:00 12,4 11,5 11,8 19 10 44 24 SSE 994,0 1,7 5,5
22.01.2021 12:00:00 14,1 10,7 13,9 26 14 52 28 SE 995,7 19 0,0
22.01.2021 11:00:00 13,9 10,5 12,5 31 17 50 27 SSE 997,4 20 0,0
22.01.2021 10:00:00 13,0 8,7 11,5 16 9 33 18 ESE 997,5 43 0,0
22.01.2021 09:00:00 11,8 8,8 9,7 19 10 35 19 E 998,2 48 0,0
22.01.2021 08:00:00 11,1 8,3 10,3 17 9 31 17 E 999,9 56 0,0
22.01.2021 07:00:00 10,8 8,4 9,4 21 12 31 17 E 1000,7 53 0,0
22.01.2021 06:00:00 10,3 8,1 7,9 14 8 27 15 ENE 1002,0 42 0,0
22.01.2021 05:00:00 8,8 7,4 7,5 14 8 23 13 E 1002,9 38 0,0
22.01.2021 04:00:00 8,5 7,3 7,5 11 6 16 9 ENE 1004,1 35 0,0
22.01.2021 03:00:00 10,0 8,3 9,2 11 6 19 10 E 1005,1 39 0,0
22.01.2021 02:00:00 9,8 8,4 6,9 10 6 19 10 E 1005,6 33 0,0
22.01.2021 01:00:00 9,1 7,9 7,4 10 6 17 9 ENE 1005,9 31 0,0
22.01.2021 00:00:00 10,0 8,3 8,6 9 5 21 11 ENE 1006,9 30 0,0
21.01.2021 23:00:00 10,9 8,5 9,5 11 6 21 12 E 1007,0 31 0,0
21.01.2021 22:00:00 12,7 9,5 11,7 14 7 24 13 ESE 1007,3 36 0,0
21.01.2021 21:00:00 13,1 9,5 12,5 10 6 27 14 SE 1007,5 37 0,0
21.01.2021 20:00:00 13,0 9,4 12,3 13 7 32 17 SE 1007,8 38 0,0
21.01.2021 19:00:00 13,0 8,9 12,2 17 9 37 20 SE 1008,0 44 0,0
21.01.2021 18:00:00 13,0 8,9 12,5 20 11 33 18 SE 1007,6 43 0,0
21.01.2021 17:00:00 13,4 9,4 12,9 17 9 31 17 SSE 1008,0 39 0,0
21.01.2021 16:00:00 13,8 9,4 13,2 15 8 30 16 SE 1007,6 41 0,0
21.01.2021 15:00:00 13,3 9,4 13,1 8 5 28 15 SE 1008,2 59 0,0
21.01.2021 14:00:00 13,4 9,3 13,5 17 9 35 19 E 1009,0 59 0,0
21.01.2021 13:00:00 13,9 9,5 13,3 18 10 32 17 E 1009,9 49 0,0
21.01.2021 12:00:00 13,3 9,4 13,8 16 8 29 16 E 1010,9 53 0,0
21.01.2021 11:00:00 13,3 9,0 10,6 17 9 32 17 ESE 1011,5 50 0,0
21.01.2021 10:00:00 10,5 8,6 9,7 13 7 19 10 E 1011,0 59 0,0
21.01.2021 09:00:00 10,3 8,2 9,3 9 5 23 12 E 1010,7 60 0,0
21.01.2021 08:00:00 10,3 8,2 9,0 13 7 32 17 E 1010,3 59 0,0
21.01.2021 07:00:00 10,1 8,2 8,8 17 9 31 17 E 1009,5 55 0,0
21.01.2021 06:00:00 10,0 8,3 8,8 19 10 29 15 E 1009,2 42 0,0
21.01.2021 05:00:00 10,3 8,9 9,3 16 9 23 12 E 1009,6 18 0,2
21.01.2021 04:00:00 10,2 9,0 9,6 14 7 25 14 E 1009,6 20 0,0
21.01.2021 03:00:00 10,5 9,3 9,7 18 10 27 15 ESE 1009,5 24 0,6
21.01.2021 02:00:00 11,4 9,1 9,9 16 8 23 13 ESE 1009,4 29 0,0
21.01.2021 01:00:00 11,0 9,7 10,2 12 6 22 12 ESE 1009,6 15 1,4
21.01.2021 00:00:00 11,8 9,2 10,0 18 10 44 24 SE 1010,2 44 0,6
20.01.2021 23:00:00 11,6 8,8 9,8 19 10 52 28 SE 1009,8 4,8 1,6
20.01.2021 22:00:00 12,8 6,6 11,1 26 14 47 26 ESE 1010,1 60 0,0
20.01.2021 21:00:00 12,2 6,0 11,6 27 15 51 27 ESE 1010,5 60 0,0
20.01.2021 20:00:00 12,2 6,7 11,6 23 13 46 25 ESE 1011,7 60 0,0
20.01.2021 19:00:00 12,3 7,0 11,5 26 14 48 26 ESE 1012,2 56 0,0
20.01.2021 18:00:00 12,3 7,0 11,5 22 12 43 23 SE 1013,0 60 0,0
20.01.2021 17:00:00 12,6 6,8 12,3 23 12 41 22 SE 1013,2 60 0,0
20.01.2021 16:00:00 13,0 6,1 13,0 26 14 50 27 SE 1013,4 60 0,0
20.01.2021 15:00:00 13,5 6,1 14,1 26 14 53 29 SE 1014,0 52 0,0
20.01.2021 14:00:00 13,5 7,0 13,1 31 17 55 30 SSE 1014,8 60 0,0
20.01.2021 13:00:00 12,8 7,9 12,5 25 14 46 25 SSE 1015,9 50 0,0
20.01.2021 12:00:00 13,0 7,7 12,7 29 16 47 26 SE 1016,8 60 0,0
20.01.2021 11:00:00 12,5 7,8 12,0 17 9 35 19 SE 1017,3 50 0,0
20.01.2021 10:00:00 12,1 7,8 9,5 19 10 32 18 SE 1017,4 59 0,0
20.01.2021 09:00:00 10,3 7,9 8,2 10 6 16 9 E 1017,6 37 0,0
20.01.2021 08:00:00 10,3 7,9 9,1 7 4 19 11 ESE 1017,8 25 0,0
20.01.2021 07:00:00 10,8 8,6 9,7 8 5 24 13 ESE 1018,0 39 0,0
20.01.2021 06:00:00 11,1 8,8 9,8 14 8 28 15 SE 1018,0 36 0,0
20.01.2021 05:00:00 10,8 9,7 7,6 10 5 18 10 SE 1018,5 8 0,0
20.01.2021 04:00:00 9,1 8,6 5,6 9 5 17 9 E 1018,8 7 0,4
20.01.2021 03:00:00 7,1 6,2 6,0 8 4 14 7 ENE 1019,4 18 0,0
20.01.2021 02:00:00 8,1 6,7 7,4 8 5 18 10 NE 1019,7 19 0,4
20.01.2021 01:00:00 9,3 8,2 7,4 9 5 22 12 ESE 1020,2 6 2,6
20.01.2021 00:00:00 9,1 7,0 8,0 10 5 19 10 E 1020,7 20 0,0
19.01.2021 23:00:00 8,5 6,3 5,2 11 6 14 8 ENE 1021,2 26 0,0
19.01.2021 22:00:00 6,4 4,7 4,0 2 1 10 5 E 1021,6 19 0,0
19.01.2021 21:00:00 6,3 4,1 2,3 3 2 10 6 NNE 1022,0 14 0,0
19.01.2021 20:00:00 4,4 2,6 1,9 6 3 11 6 NE 1022,4 13 0,0
19.01.2021 19:00:00 4,6 2,1 0,7 4 2 8 4 NNE 1022,5 22 0,0
19.01.2021 18:00:00 6,0 1,5 2,2 4 2 8 4 ESE 1022,3 35 0,0
19.01.2021 17:00:00 10,3 3,6 9,9 6 4 14 8 S 1022,4 54 0,0
19.01.2021 16:00:00 11,6 0,9 14,4 10 5 17 9 S 1022,7 52 0,0
19.01.2021 15:00:00 12,2 -0,4 16,5 8 4 16 9 S 1022,8 54 0,0
19.01.2021 14:00:00 12,0 -1,9 16,8 7 4 16 9 S 1023,5 20 0,0
19.01.2021 13:00:00 11,3 0,4 15,9 8 5 16 9 S 1024,2 60 0,0
19.01.2021 12:00:00 10,4 -0,2 12,8 4 2 8 4 NE 1025,1 55 0,0
19.01.2021 11:00:00 7,7 -2,1 8,1 2 1 15 8 ENE 1025,9 60 0,0
19.01.2021 10:00:00 4,8 -2,1 -5,1 4 2 8 5 ESE 1025,6 52 0,0
19.01.2021 09:00:00 -3,1 -4,4 -8,9 4 2 5 3 N 1025,6 20 0,0
19.01.2021 08:00:00 -4,7 -5,9 -9,1 0 0 5 3 N 1025,8 30 0,0
19.01.2021 07:00:00 -5,5 -6,7 -9,5 0 0 4 2 N 1025,8 22 0,0
19.01.2021 06:00:00 -5,2 -6,7 -8,5 0 0 4 2 N 1025,9 19 0,0
19.01.2021 05:00:00 -4,9 -6,1 -8,4 0 0 4 2 N 1025,9 18 0,0
19.01.2021 04:00:00 -3,6 -4,7 -8,0 0 0 4 2 N 1025,7 19 0,0
19.01.2021 03:00:00 -3,9 -5,0 -7,8 0 0 6 3 N 1026,2 20 0,0
19.01.2021 02:00:00 -3,7 -5,2 -7,3 0 0 3 2 N 1026,3 24 0,0
19.01.2021 01:00:00 -3,2 -4,9 -6,2 3 2 5 3 NE 1026,6 26 0,0
19.01.2021 00:00:00 -2,1 -4,3 -5,1 0 0 4 2 N 1026,8 40 0,0
18.01.2021 23:00:00 -1,2 -4,0 -4,1 5 3 7 4 E 1026,8 54 0,0
18.01.2021 22:00:00 0,9 -2,5 -3,0 5 3 13 7 ESE 1026,2 55 0,0
18.01.2021 21:00:00 3,8 -2,2 1,1 9 5 21 12 N 1026,1 60 0,0
18.01.2021 20:00:00 5,1 -1,6 2,1 10 6 23 12 NW 1026,0 60 0,0
18.01.2021 19:00:00 6,0 -1,4 4,7 9 5 29 15 NW 1025,5 60 0,0
18.01.2021 18:00:00 6,8 -0,9 5,6 15 8 42 23 NW 1025,0 60 0,0
18.01.2021 17:00:00 8,2 -0,8 8,0 24 13 56 30 NW 1024,5 34 0,0
18.01.2021 16:00:00 9,2 -1,3 10,6 39 21 57 31 NNW 1023,9 22 0,0
18.01.2021 15:00:00 10,1 -0,4 11,8 35 19 53 29 NNW 1023,8 36 0,0
18.01.2021 14:00:00 9,8 -1,0 11,6 38 21 58 31 NNW 1024,3 40 0,0
18.01.2021 13:00:00 9,6 -0,6 12,0 34 18 56 31 NNW 1025,1 58 0,0
18.01.2021 12:00:00 9,2 -0,4 11,4 21 12 36 19 N 1025,5 60 0,0
18.01.2021 11:00:00 7,9 -0,3 9,6 16 8 39 21 NNW 1025,5 56 0,0
18.01.2021 10:00:00 6,5 -1,2 3,4 6 3 23 13 E 1024,9 47 0,0
18.01.2021 09:00:00 4,1 -0,9 2,5 6 4 31 17 S 1024,8 60 0,0
18.01.2021 08:00:00 4,4 -1,0 2,5 20 11 46 25 N 1024,1 60 0,0
18.01.2021 07:00:00 4,6 -1,0 2,7 14 8 39 21 NW 1024,1 60 0,0

tt = Température de l'air
td = dewpoint
tt 5cm = Température de l'air 5cm
ff = Vitesse du vent
fx = gusts
dd = Direction du vent
ppp = reduced air pressure
vv = visibility
rr = Quantités de précipitations

stations d'obs. à proximité